Date String (YYYY-MM-DD hh:mm:ss) UTC,Instrument flags,absolute air pressure of the measurement (hPa),sample flow rate (lpm),inlet stack bypass flow (lpm),air temperature of the measurement (°C),ambient temperature measured by the external sensor (°C),aerosol sample conditioner tube jacket temperature (°C),OPC LED temperature (°C),internal box temperature (°C),relative humidity of the measurement (%),span deviation,mass concentration of particles derived from Lorenz-Mie calculation of OPC scattering (μg/m³),mass concentration of particles derived from Lorenz-Mie calculation of OPC scattering (μg/m³),mass concentration of particles derived from Lorenz-Mie calculation of OPC scattering (μg/m³)
DateTimeUTC,F1_M11,P_M11,Q1_M11,Q2_M11,T1_M11,T2_M11,T3_M11,T4_M11,T5_M11,U1_M11,ZSPAN_M11,X0_M11,X2_M11,X1_M11
2024-03-21 08:00:00,SystemResetWarning,0825.8,4.99,000.00,022.1,021.2,000.0,030.8,023.9,16.6,0000.0,0010.34,0005.22,0004.64
2024-03-21 08:01:00,SystemResetWarning,0825.8,5.00,000.00,022.1,021.2,000.0,030.8,023.9,17.2,0000.0,0011.15,0005.54,0004.93
2024-03-21 08:02:00,SystemResetWarning,0825.8,5.00,000.00,022.1,021.2,000.0,030.8,023.9,17.2,0000.0,0011.68,0005.86,0005.21
2024-03-21 08:03:00,SystemResetWarning,0825.8,5.01,000.00,022.1,021.2,000.0,030.8,023.9,15.8,0000.0,0012.00,0006.10,0005.38
2024-03-21 08:04:00,SystemResetWarning,0825.8,5.01,000.00,022.1,021.2,000.0,030.8,023.9,15.2,0000.0,0012.26,0006.13,0005.39
2024-03-21 08:05:00,SystemResetWarning,0825.8,5.00,000.00,022.1,021.2,000.0,030.7,023.9,15.2,0000.0,0012.63,0006.05,0005.31
2024-03-21 08:06:00,SystemResetWarning,0825.8,5.00,000.00,022.1,021.2,000.0,030.7,023.9,15.4,0000.0,0012.94,0006.02,0005.26
2024-03-21 08:07:00,SystemResetWarning,0825.8,5.00,000.00,022.1,021.2,000.0,030.7,023.9,15.9,0000.0,0012.77,0006.03,0005.27
2024-03-21 08:08:00,SystemResetWarning,0825.8,5.00,000.00,022.1,021.2,000.0,030.7,023.9,15.8,0000.0,0012.60,0006.05,0005.29
2024-03-21 08:09:00,SystemResetWarning,0825.8,5.00,000.00,022.0,021.2,000.0,030.7,023.9,15.6,0000.0,0012.75,0006.10,0005.33
2024-03-21 08:10:00,SystemResetWarning,0825.8,5.00,000.00,022.0,021.2,000.0,030.7,023.9,16.0,0002.1,0013.01,0006.11,0005.36
2024-03-21 08:11:00,SystemResetWarning,0825.8,4.99,000.00,022.0,021.2,000.0,030.7,023.8,16.4,0004.0,0013.31,0006.05,0005.30
2024-03-21 08:12:00,SystemResetWarning,0825.8,5.00,000.00,022.0,021.1,000.0,030.7,023.8,16.9,0000.0,0014.47,0006.00,0005.23
2024-03-21 08:13:00,SystemResetWarning,0825.8,4.99,000.00,022.0,021.1,000.0,030.7,023.8,16.8,0000.0,0014.13,0005.96,0005.17
2024-03-21 08:14:00,SystemResetWarning,0825.8,5.01,000.00,022.0,021.1,000.0,030.7,023.8,17.1,0000.0,0014.15,0006.04,0005.23
2024-03-21 08:15:00,SystemResetWarning,0825.8,5.01,000.00,022.0,021.1,000.0,030.6,023.8,16.8,0000.0,0014.69,0006.24,0005.38
2024-03-21 08:16:00,SystemResetWarning,0825.8,5.00,000.00,022.0,021.2,000.0,030.6,023.8,16.2,0000.8,0014.63,0006.28,0005.39
2024-03-21 08:17:00,SystemResetWarning,0825.8,4.99,000.00,022.0,021.2,000.0,030.6,023.8,16.0,0001.2,0014.52,0006.22,0005.34
2024-03-21 08:18:00,SystemResetWarning,0825.8,4.99,000.00,022.0,021.1,000.0,030.6,023.8,15.9,0003.8,0014.75,0006.27,0005.36
2024-03-21 08:19:00,SystemResetWarning,0825.8,4.99,000.00,022.0,021.1,000.0,030.6,023.8,16.0,0003.7,0015.18,0006.34,0005.42
2024-03-21 08:20:00,SystemResetWarning,0825.8,5.00,000.00,022.0,021.1,000.0,030.6,023.8,15.8,0003.8,0015.24,0006.41,0005.46
2024-03-21 08:21:00,SystemResetWarning,0825.8,5.01,000.00,021.9,021.1,000.0,030.6,023.8,15.9,0004.1,0015.12,0006.42,0005.44
2024-03-21 08:22:00,SystemResetWarning,0825.7,5.01,000.00,021.9,021.1,000.0,030.6,023.8,16.1,0003.7,0015.12,0006.40,0005.41
2024-03-21 08:23:00,SystemResetWarning,0825.8,4.99,000.00,021.9,021.1,000.0,030.6,023.8,16.2,0003.3,0014.92,0006.33,0005.33
2024-03-21 08:24:00,SystemResetWarning,0825.8,4.99,000.00,021.9,021.1,000.0,030.6,023.8,16.3,0002.9,0014.67,0006.21,0005.25
2024-03-21 08:25:00,SystemResetWarning,0825.8,4.99,000.00,021.9,021.1,000.0,030.6,023.7,16.6,0002.5,0014.31,0006.11,0005.19
2024-03-21 08:26:00,SystemResetWarning,0825.8,5.01,000.00,021.9,021.1,000.0,030.6,023.8,16.6,0002.4,0013.91,0006.03,0005.14
2024-03-21 08:27:00,SystemResetWarning,0825.9,5.01,000.00,021.9,021.1,000.0,030.6,023.8,16.3,0002.0,0014.15,0006.03,0005.12
2024-03-21 08:28:00,SystemResetWarning,0825.9,5.00,000.00,021.9,021.1,000.0,030.5,023.7,16.3,0001.7,0013.70,0006.03,0005.12
2024-03-21 08:29:00,SystemResetWarning,0825.9,4.99,000.00,021.9,021.1,000.0,030.5,023.7,16.1,0000.7,0013.51,0006.00,0005.09
2024-03-21 08:30:00,SystemResetWarning,0825.9,4.99,000.00,021.9,021.1,000.0,030.5,023.7,15.9,0000.0,0013.40,0005.92,0005.03
2024-03-21 08:31:00,SystemResetWarning,0825.8,5.01,000.00,021.9,021.1,000.0,030.5,023.7,16.0,0000.0,0013.66,0005.83,0004.95
2024-03-21 08:32:00,SystemResetWarning,0825.9,5.01,000.00,021.9,021.0,000.0,030.5,023.7,16.3,0000.0,0014.00,0005.81,0004.96
2024-03-21 08:33:00,SystemResetWarning,0825.9,5.00,000.00,021.8,021.0,000.0,030.5,023.7,16.2,0000.0,0014.13,0005.76,0004.93
2024-03-21 08:34:00,SystemResetWarning,0825.8,4.99,000.00,021.8,021.0,000.0,030.5,023.7,16.0,0000.0,0012.56,0005.67,0004.88
2024-03-21 08:35:00,SystemResetWarning,0825.8,4.99,000.00,021.8,021.0,000.0,030.5,023.7,16.1,0000.0,0012.21,0005.58,0004.82
2024-03-21 08:36:00,SystemResetWarning,0825.9,5.01,000.00,021.8,021.0,000.0,030.5,023.7,16.1,0000.0,0012.64,0005.53,0004.74
2024-03-21 08:37:00,SystemResetWarning,0825.8,5.01,000.00,021.8,021.0,000.0,030.5,023.7,15.9,0000.0,0013.07,0005.42,0004.64
2024-03-21 08:38:00,SystemResetWarning,0825.8,5.00,000.00,021.8,021.0,000.0,030.5,023.6,15.5,0000.0,0013.52,0005.27,0004.52
2024-03-21 08:39:00,SystemResetWarning,0825.8,4.99,000.00,021.8,021.0,000.0,030.4,023.6,15.8,0000.0,0013.68,0005.33,0004.52
2024-03-21 08:40:00,SystemResetWarning,0825.8,5.00,000.00,021.8,021.0,000.0,030.4,023.6,16.1,0000.0,0013.80,0005.44,0004.62
2024-03-21 08:41:00,SystemResetWarning,0825.7,5.00,000.00,021.8,021.0,000.0,030.4,023.6,16.1,0000.0,0013.95,0005.54,0004.70
2024-03-21 08:42:00,SystemResetWarning,0825.8,5.00,000.00,021.8,021.0,000.0,030.4,023.6,16.0,0000.0,0013.80,0005.64,0004.75
2024-03-21 08:43:00,SystemResetWarning,0825.8,5.00,000.00,021.8,021.0,000.0,030.4,023.6,15.9,0000.0,0013.69,0005.64,0004.71
2024-03-21 08:44:00,SystemResetWarning,0825.8,5.00,000.00,021.8,020.9,000.0,030.4,023.6,16.1,0000.0,0014.19,0005.68,0004.70
2024-03-21 08:45:00,SystemResetWarning,0825.8,5.00,000.00,021.7,020.9,000.0,030.4,023.6,16.1,0000.0,0014.79,0005.68,0004.70
2024-03-21 08:46:00,SystemResetWarning,0825.7,5.00,000.00,021.7,020.8,000.0,030.4,023.6,16.1,0000.0,0015.33,0005.66,0004.69
2024-03-21 08:47:00,SystemResetWarning,0825.7,5.00,000.00,021.7,020.8,000.0,030.4,023.5,16.0,0000.0,0016.06,0005.60,0004.68
2024-03-21 08:48:00,SystemResetWarning,0825.7,5.00,000.00,021.7,020.8,000.0,030.4,023.5,15.9,0000.0,0015.39,0005.58,0004.67
2024-03-21 08:49:00,SystemResetWarning,0825.7,5.00,000.00,021.7,020.8,000.0,030.4,023.5,15.5,0000.0,0015.03,0005.58,0004.69
2024-03-21 08:50:00,SystemResetWarning,0825.7,5.00,000.00,021.7,020.8,000.0,030.4,023.5,15.2,0000.0,0014.54,0005.49,0004.68
2024-03-21 08:51:00,SystemResetWarning,0825.7,4.99,000.00,021.7,020.8,000.0,030.4,023.5,15.3,0000.0,0015.23,0005.37,0004.56
2024-03-21 08:52:00,SystemResetWarning,0825.7,5.00,000.00,021.7,020.8,000.0,030.4,023.5,15.2,0000.0,0014.75,0005.15,0004.41
2024-03-21 08:53:00,SystemResetWarning,0825.6,4.99,000.00,021.7,020.9,000.0,030.3,023.5,14.7,0000.0,0014.30,0004.92,0004.25
2024-03-21 08:54:00,SystemResetWarning,0825.6,5.00,000.00,021.7,020.9,000.0,030.3,023.5,14.6,0000.0,0014.30,0004.72,0004.10
2024-03-21 08:55:00,SystemResetWarning,0825.6,5.01,000.00,021.7,020.9,000.0,030.3,023.5,14.8,0000.0,0013.36,0004.50,0003.96
2024-03-21 08:56:00,SystemResetWarning,0825.7,5.01,000.00,021.7,020.9,000.0,030.3,023.5,14.9,0000.0,0012.41,0004.31,0003.80
2024-03-21 08:57:00,SystemResetWarning,0825.6,5.00,000.00,021.7,020.9,000.0,030.3,023.5,15.5,0000.0,0011.52,0004.17,0003.68
2024-03-21 08:58:00,SystemResetWarning,0825.6,5.00,000.00,021.7,020.9,000.0,030.3,023.5,16.0,0000.0,0010.37,0004.07,0003.56
2024-03-21 08:59:00,SystemResetWarning,0825.6,5.00,000.00,021.7,020.9,000.0,030.3,023.5,16.1,0000.0,0010.20,0003.91,0003.41
